Regional Weather Roundup
Issued by NWS Sterling, VA

Home | Current Version | Previous Version | Text Only | Print | Product List | Glossary Off
Versions: 1 2 3 4 5 6 7 8 9 10 11 12 13 14 15 16 17 18 19 20 21 22 23 24 25 26 27 28 29 30 31 32 33 34 35 36 37 38 39 40 41 42 43 44 45 46 47 48 49 50

939
ASUS41 KLWX 300710
RWRLWX

REGIONAL WEATHER ROUNDUP
NATIONAL WEATHER SERVICE BALTIMORE MD/WASHINGTON DC
300 AM EDT SAT JUL 30 2016

Note: "FAIR" indicates few or no clouds below 12,000 feet
with no significant weather and/or obstructions to visibility.
 TC=TEMPERATURE CELSIUS

 * =Non NWS site. Station does not report precipitation (e.g. rain,
    snow, etc.), thunder, or fog.

DCZ001-MDZ009-015-VAZ040>042-051-053>054-300800-
WASHINGTON METRO

CITY           SKY/WX    TMP DP  RH WIND       PRES   REMARKS
WASHINGTON NAT MOCLDY    79  74  84 S5        29.93F
DULLES         MOCLDY    75  70  84 CALM      29.94S
ANDREWS AFB    PTCLDY    73  71  92 S2        29.93F
FT BELVOIR     MOCLDY    72  72 100 CALM      29.92F
QUANTICO       FAIR      77  73  87 W3        29.93
LEESBURG*      FAIR      73  73 100 CALM      29.95S
MANASSAS*      FAIR      72  72 100 CALM      29.93F
GAITHERSBURG*  CLEAR     72  70  94 CALM      29.99R

$$

MDZ006>007-011-014-300800-
BALTIMORE METRO

CITY           SKY/WX    TMP DP  RH WIND       PRES   REMARKS
BWI AIRPORT    PTCLDY    74  72  93 CALM      29.92F
MD SCIENCE CTR   N/A     78  72  81 MISG      29.92F
MARTIN STATE   CLEAR     77  77 100 CALM      29.94S
ANNAPOLIS      CLEAR     78  72  81 CALM      29.92F
FORT MEADE*    CLEAR     70  68  94 CALM      29.95F

$$

MDZ012-015-019>023-300800-
MARYLAND EASTERN SHORE

CITY           SKY/WX    TMP DP  RH WIND       PRES   REMARKS
OCEAN CITY     CLEAR     72  70  93 CALM      29.95S
SALISBURY      NOT AVBL
BAY BRIDGE AP* CLEAR     79  77  94 S6        29.93F
CAMBRIDGE*     CLEAR     72  72 100 CALM      29.94F
EASTON*        CLEAR     76  76  98 S3        29.98S

$$

MDZ017>025-300800-
SOUTHERN MARYLAND

CITY           SKY/WX    TMP DP  RH WIND       PRES   REMARKS
PATUXENT RIVER NOT AVBL
ST INIGOES     CLEAR     74  72  93 CALM      29.93F
LEONARDTOWN*   CLEAR     72  70  94 S3        29.96S

$$

MDZ003>005-300800-
NORTH CENTRAL MARYLAND

CITY           SKY/WX    TMP DP  RH WIND       PRES   REMARKS
FREDERICK*     CLEAR     70  70 100 CALM      29.96F FOG
HAGERSTOWN APT PTCLDY    77  68  73 E5        29.95S

$$

MDZ501>502-300800-
WESTERN MARYLAND

CITY           SKY/WX    TMP DP  RH WIND       PRES   REMARKS
OAKLAND*       MOCLDY    64  63  94 S3        30.06S
CUMBERLAND*    PTCLDY    72  70  94 N3        29.99F

$$

VAZ025>031-300800-
SHENANDOAH VALLEY

CITY           SKY/WX    TMP DP  RH WIND       PRES   REMARKS
WINCHESTER*    FAIR      72  70  94 CALM      29.95F
FRONT ROYAL*   FAIR      72  70  94 S5        29.94F
LURAY*         FAIR      72  72 100 CALM      29.96F
NEW MARKET*    PTSUNNY  N/A N/A N/A CALM      29.95F
STAUNTON*      MOCLDY    70  69  96 CALM      29.99F
WAYNESBORO*    CLOUDY    71  69  93 CALM      29.99F

$$

WVZ021-048>050-054>055-300800-
EASTERN WEST VIRGINIA PANHANDLE

CITY           SKY/WX    TMP DP  RH WIND       PRES   REMARKS
MARTINSBURG    FAIR      73  69  87 CALM      29.94F
PETERSBURG*    CLOUDY    70  70  98 CALM      29.96F FOG

$$

VAZ036>039-050-300800-
CENTRAL FOOTHILLS

CITY           SKY/WX    TMP DP  RH WIND       PRES   REMARKS
CHARLOTTESVILL FAIR      74  70  87 CALM      29.95F
CULPEPER*      FAIR      72  72 100 CALM      29.94F FOG
ORANGE*          N/A     73  73 100 CALM      29.96F
GORDONSVILLE*  FAIR      73  73 100 CALM      29.94F
WARRENTON*     FAIR      73  68  86 CALM      29.93F

$$

VAZ055>057-300800-
NORTH AND CENTRAL PIEDMONT

CITY           SKY/WX    TMP DP  RH WIND       PRES   REMARKS
FREDERICKSBRG* FAIR      74  74 100 CALM      29.93F
STAFFORD*      FAIR      70  69  97 CALM      29.97F FOG

$$

NCZ024-NYZ072-PAZ021-071-VAZ022-071-300800-
OTHER REGIONAL OBSERVATIONS

CITY           SKY/WX    TMP DP  RH WIND       PRES   REMARKS
NEW YORK CITY  CLOUDY    76  70  82 CALM      29.96S
PHILADELPHIA   PTCLDY    76  71  85 CALM      29.95R
PITTSBURGH     PTCLDY    70  64  81 CALM      29.96S
ROANOKE        CLOUDY    73  71  93 NE7       30.01F
RICHMOND       FAIR      74  71  91 CALM      29.94F
RALEIGH        PTCLDY    78  71  79 SE5       29.94F

$$

ANZ530>537-300800-
MARINE OBSERVATIONS

STATION/POSITION TIME  TEMP    WIND        PRES
                       AIR SEA DIR/SP/G
                 (UTC) (F)     (DEG/KT/KT) (MB)
THOMAS PT LIGHT  0600   82 83  180/  9/ 10 1015.1F
BALT KEY BRIDGE  0630   80     180/  4/  5 1013.3F
COVE POINT       0630   79     230/  8/  9 1014.3F
LEWISETTA        0630   79 87  250/  3/  4 1013.6S
SOLOMONS ISLAND  0630   80 85  210/  6/  7   N/A
PINEY POINT      0630          230/  7/  8   N/A

$$





USA.gov is the U.S. government's official web portal to all federal, state and local government web resources and services.